ASX454 LIRF-LIMC

Flight info

Callsign ASX454
Flight time N/A
Altitude 34000
Route NEMBO DCT ELB DCT NORNI DCT UPDIN DCT SPEZI DCT IDONA DCT MEBUR
Aircraft A20N/M-SDE2E3FGHIRWXY/LB1

Departure

Time 2026-05-05 20:13
Airport Rome–Fiumicino Leonardo da Vinci International Airport (LIRF)

Arrival

Time N/A
Airport Milan Malpensa International Airport (LIMC)
Time Latitude Longitude Altitude Speed Heading
2026-05-05 19:57 41.79861 12.26653 10 ft 0 kts 251°
2026-05-05 20:07 41.79861 12.26649 10 ft 1 kts 250°
2026-05-05 20:07 41.79852 12.26612 10 ft 6 kts 262°
2026-05-05 20:08 41.79888 12.26559 11 ft 11 kts 339°
2026-05-05 20:08 41.79981 12.26515 12 ft 17 kts 340°
2026-05-05 20:08 41.80112 12.26450 13 ft 19 kts 339°
2026-05-05 20:08 41.80113 12.26304 13 ft 15 kts 288°
2026-05-05 20:09 41.80157 12.26183 15 ft 14 kts 284°
2026-05-05 20:09 41.80195 12.26065 16 ft 14 kts 314°
2026-05-05 20:09 41.80277 12.26074 16 ft 13 kts 23°
2026-05-05 20:09 41.80362 12.26127 16 ft 13 kts 25°
2026-05-05 20:10 41.80453 12.26174 16 ft 15 kts 15°
2026-05-05 20:10 41.80537 12.26280 14 ft 19 kts 72°
2026-05-05 20:10 41.80582 12.26458 13 ft 20 kts 70°
2026-05-05 20:10 41.80634 12.26636 10 ft 21 kts 70°
2026-05-05 20:11 41.80685 12.26821 9 ft 21 kts 68°
2026-05-05 20:11 41.80735 12.26995 9 ft 16 kts 59°
2026-05-05 20:11 41.80834 12.27028 9 ft 18 kts 342°
2026-05-05 20:11 41.80945 12.26965 11 ft 14 kts 309°
2026-05-05 20:12 41.80928 12.26819 9 ft 28 kts 249°
2026-05-05 20:12 41.80768 12.26241 13 ft 100 kts 248°
2026-05-05 20:12 41.80457 12.25104 13 ft 157 kts 248°
2026-05-05 20:12 41.80058 12.23607 332 ft 177 kts 248°
2026-05-05 20:13 41.79633 12.22079 1009 ft 177 kts 244°
2026-05-05 20:13 41.79308 12.20502 1761 ft 178 kts 258°
2026-05-05 20:13 41.79221 12.18811 2244 ft 191 kts 263°
2026-05-05 20:13 41.79178 12.16967 2650 ft 207 kts 264°
2026-05-05 20:14 41.79142 12.14950 2983 ft 230 kts 268°
2026-05-05 20:14 41.79492 12.12745 3431 ft 254 kts 291°
2026-05-05 20:14 41.80325 12.10595 4019 ft 269 kts 296°
2026-05-05 20:14 41.81247 12.08422 4818 ft 273 kts 296°
2026-05-05 20:15 41.82175 12.06179 5702 ft 275 kts 295°
2026-05-05 20:15 41.83071 12.03931 6559 ft 277 kts 294°
2026-05-05 20:15 41.83957 12.01642 7428 ft 280 kts 294°
2026-05-05 20:15 41.84824 11.99360 8288 ft 281 kts 294°
2026-05-05 20:16 41.85705 11.97018 9156 ft 283 kts 294°
2026-05-05 20:16 41.86588 11.94659 9984 ft 286 kts 294°
2026-05-05 20:16 41.87473 11.92281 10673 ft 293 kts 294°
2026-05-05 20:16 41.88414 11.89740 11091 ft 310 kts 294°
2026-05-05 20:17 41.89407 11.87056 11460 ft 328 kts 294°
2026-05-05 20:17 41.90441 11.84256 11792 ft 346 kts 294°
2026-05-05 20:17 41.91537 11.81288 12088 ft 363 kts 294°
2026-05-05 20:17 41.92671 11.78213 12367 ft 380 kts 294°
2026-05-05 20:18 41.93862 11.74982 12682 ft 393 kts 295°
2026-05-05 20:18 41.95082 11.71669 13234 ft 399 kts 295°
2026-05-05 20:18 41.96311 11.68332 13880 ft 402 kts 295°
2026-05-05 20:18 41.97548 11.64968 14522 ft 404 kts 294°
2026-05-05 20:19 41.98791 11.61582 15125 ft 408 kts 294°
2026-05-05 20:19 42.00044 11.58167 15701 ft 411 kts 294°
2026-05-05 20:19 42.01317 11.54691 16288 ft 414 kts 294°
2026-05-05 20:19 42.02576 11.51245 16842 ft 417 kts 294°
2026-05-05 20:20 42.03854 11.47745 17404 ft 419 kts 294°
2026-05-05 20:20 42.05134 11.44229 17930 ft 422 kts 294°
2026-05-05 20:20 42.06426 11.40680 18420 ft 426 kts 294°
2026-05-05 20:20 42.07733 11.37082 18925 ft 429 kts 294°
2026-05-05 20:21 42.09043 11.33472 19394 ft 432 kts 293°
2026-05-05 20:21 42.10372 11.29795 19850 ft 436 kts 293°
2026-05-05 20:21 42.11704 11.26142 20291 ft 439 kts 293°
2026-05-05 20:21 42.13049 11.22453 20717 ft 443 kts 292°
2026-05-05 20:22 42.14402 11.18730 21157 ft 445 kts 292°
2026-05-05 20:22 42.15757 11.14989 21580 ft 448 kts 292°
2026-05-05 20:22 42.17126 11.11196 21985 ft 451 kts 292°
2026-05-05 20:22 42.18498 11.07384 22372 ft 454 kts 292°
2026-05-05 20:23 42.19874 11.03557 22733 ft 458 kts 292°
2026-05-05 20:23 42.21269 10.99667 23076 ft 461 kts 292°
2026-05-05 20:23 42.22659 10.95785 23432 ft 464 kts 292°
2026-05-05 20:23 42.24061 10.91863 23782 ft 466 kts 292°
2026-05-05 20:24 42.25457 10.87954 24219 ft 464 kts 292°
2026-05-05 20:24 42.26855 10.84049 24810 ft 460 kts 292°
2026-05-05 20:24 42.28468 10.80393 25355 ft 462 kts 302°
2026-05-05 20:24 42.30563 10.77113 25867 ft 465 kts 311°
2026-05-05 20:25 42.33153 10.74487 26353 ft 471 kts 324°
2026-05-05 20:25 42.36001 10.72255 26898 ft 468 kts 324°
2026-05-05 20:25 42.38811 10.70068 27323 ft 466 kts 324°
2026-05-05 20:25 42.41581 10.67904 27734 ft 465 kts 324°
2026-05-05 20:26 42.44398 10.65691 28142 ft 464 kts 323°
2026-05-05 20:26 42.47163 10.63510 28549 ft 462 kts 323°
2026-05-05 20:26 42.49916 10.61334 28993 ft 460 kts 323°
2026-05-05 20:26 42.52676 10.59150 29421 ft 458 kts 322°
2026-05-05 20:27 42.55388 10.56997 29832 ft 456 kts 322°
2026-05-05 20:27 42.58134 10.54813 30246 ft 454 kts 322°
2026-05-05 20:27 42.60853 10.52647 30634 ft 453 kts 322°
2026-05-05 20:27 42.63565 10.50483 31013 ft 452 kts 322°
2026-05-05 20:28 42.66230 10.48351 31376 ft 452 kts 322°
2026-05-05 20:28 42.68941 10.46186 31775 ft 450 kts 322°
2026-05-05 20:28 42.71659 10.44014 32142 ft 449 kts 322°
2026-05-05 20:28 42.74324 10.41879 32421 ft 450 kts 322°
2026-05-05 20:29 42.77016 10.39722 32703 ft 450 kts 321°
2026-05-05 20:29 42.79721 10.37553 33079 ft 448 kts 321°
2026-05-05 20:29 42.82391 10.35411 33426 ft 447 kts 322°
2026-05-05 20:29 42.85054 10.33264 33724 ft 446 kts 321°
2026-05-05 20:30 42.87707 10.31117 34087 ft 444 kts 321°
2026-05-05 20:30 42.90372 10.28963 34419 ft 442 kts 320°
2026-05-05 20:30 42.93005 10.26831 34563 ft 445 kts 320°
2026-05-05 20:30 42.95654 10.24685 34691 ft 447 kts 321°
2026-05-05 20:31 42.98356 10.22497 34856 ft 448 kts 321°
2026-05-05 20:31 43.01030 10.20333 35053 ft 448 kts 321°
2026-05-05 20:31 43.03706 10.18169 35229 ft 448 kts 321°
2026-05-05 20:31 43.06372 10.16010 35356 ft 450 kts 321°
2026-05-05 20:32 43.09079 10.13815 35490 ft 451 kts 321°
2026-05-05 20:32 43.11760 10.11645 35614 ft 452 kts 321°
2026-05-05 20:32 43.14457 10.09471 35753 ft 452 kts 321°
2026-05-05 20:32 43.17161 10.07285 35882 ft 452 kts 321°
2026-05-05 20:33 43.19867 10.05088 35923 ft 454 kts 321°
2026-05-05 20:33 43.25349 10.00624 35931 ft 459 kts 321°
2026-05-05 20:34 43.30805 9.96167 35929 ft 460 kts 321°
2026-05-05 20:34 43.36327 9.91646 35932 ft 460 kts 321°
2026-05-05 20:35 43.41782 9.87306 35938 ft 462 kts 322°
2026-05-05 20:35 43.47369 9.83023 35932 ft 462 kts 322°
2026-05-05 20:36 43.52977 9.78702 35936 ft 463 kts 322°
2026-05-05 20:36 43.58586 9.74358 35934 ft 463 kts 322°
2026-05-05 20:37 43.64194 9.69997 35930 ft 463 kts 322°
2026-05-05 20:37 43.69783 9.65644 35926 ft 464 kts 322°
2026-05-05 20:38 43.75396 9.61259 35925 ft 463 kts 322°
2026-05-05 20:38 43.80995 9.56881 35934 ft 465 kts 322°
2026-05-05 20:39 43.86614 9.52479 35865 ft 462 kts 322°
2026-05-05 20:39 43.89396 9.50302 35480 ft 459 kts 322°
2026-05-05 20:39 43.92165 9.48137 34714 ft 463 kts 322°
2026-05-05 20:39 43.95042 9.46069 33714 ft 473 kts 325°
2026-05-05 20:40 43.98077 9.44180 32709 ft 481 kts 329°
2026-05-05 20:40 44.01224 9.42531 31806 ft 486 kts 333°
2026-05-05 20:40 44.04446 9.41155 31109 ft 487 kts 337°
2026-05-05 20:40 44.07687 9.40025 30684 ft 479 kts 339°
2026-05-05 20:41 44.10924 9.38963 30138 ft 473 kts 339°
2026-05-05 20:41 44.14127 9.37926 29346 ft 474 kts 340°
2026-05-05 20:41 44.17337 9.36873 28349 ft 478 kts 340°
2026-05-05 20:41 44.20564 9.35804 27300 ft 484 kts 341°
2026-05-05 20:42 44.23834 9.34717 26246 ft 488 kts 341°
2026-05-05 20:42 44.27148 9.33604 25247 ft 490 kts 341°
2026-05-05 20:42 44.30459 9.32491 24580 ft 478 kts 342°
2026-05-05 20:42 44.33612 9.31445 24085 ft 455 kts 342°
2026-05-05 20:43 44.36593 9.30456 23592 ft 435 kts 342°
2026-05-05 20:43 44.39468 9.29500 23159 ft 415 kts 342°
2026-05-05 20:43 44.42207 9.28589 22793 ft 396 kts 341°
2026-05-05 20:43 44.44842 9.27710 22574 ft 384 kts 341°
2026-05-05 20:44 44.47427 9.26844 22356 ft 374 kts 341°
2026-05-05 20:44 44.49918 9.26003 22012 ft 370 kts 341°
2026-05-05 20:44 44.52420 9.25159 21602 ft 368 kts 341°
2026-05-05 20:44 44.54904 9.24320 21225 ft 365 kts 341°
2026-05-05 20:45 44.59806 9.22667 20440 ft 361 kts 341°
2026-05-05 20:45 44.62207 9.21856 20082 ft 357 kts 341°
2026-05-05 20:45 44.64645 9.21034 19973 ft 356 kts 341°
2026-05-05 20:46 44.67032 9.20225 19964 ft 357 kts 341°
2026-05-05 20:46 44.69449 9.19410 19960 ft 355 kts 341°
2026-05-05 20:46 44.71818 9.18614 19954 ft 341 kts 341°
2026-05-05 20:46 44.74063 9.17861 19953 ft 326 kts 341°
2026-05-05 20:47 44.76234 9.17132 19957 ft 317 kts 342°
2026-05-05 20:47 44.78454 9.16978 19933 ft 325 kts 10°
2026-05-05 20:47 44.80492 9.18300 19950 ft 329 kts 41°
2026-05-05 20:47 44.81839 9.20816 19949 ft 323 kts 73°
2026-05-05 20:48 44.82204 9.23841 19860 ft 307 kts 101°